User: anonymous   Login
Location: Trondheim
(63.4170°N, 10.4170°E)
Time: 13:05:18
(UTC+01:00)
Language:

Iridium 82 - Orbit

View from above orbital plane
View from above orbital plane
View from above satellite
View from above satellite

Ground track
Ground track

The orbit data is extracted from the following two-line orbital elements,

1 25467U 98051A   15027.48585514  .00000155  00000-0  48219-4 0  2433
2 25467 086.3948 026.4335 0001758 115.6498 244.4880 14.34221260861675
Epoch (UTC): 27 January 2015 11:39:37
Eccentricity: 0.0001758
inclination: 86.3948°
perigee height: 776 km
apogee height: 779 km
right ascension of ascending node: 26.4335°
argument of perigee: 115.6498°
revolutions per day: 14.34221260
mean anomaly at epoch: 244.4880°
orbit number at epoch: 86167

The dashed part of the orbit path shows where the satellite is in the earth's shadow,  

DLR